Regional Weather Roundup
Issued by NWS Cleveland, OH

Home | Current Version | Previous Version | Graphics & Text | Print | Product List | Glossary On
Versions: 1 2 3 4 5 6 7 8 9 10 11 12 13 14 15 16 17 18 19 20 21 22 23 24 25 26 27 28 29 30 31 32 33 34 35 36 37 38 39 40 41 42 43 44 45 46 47 48 49 50
000
ASUS41 KCLE 301002
RWRCLE
OHIO REGIONAL WEATHER ROUNDUP
NATIONAL WEATHER SERVICE CLEVELAND, OH
600 AM EDT MON MAY 30 2016

NOTE: "FAIR" INDICATES FEW OR NO CLOUDS BELOW 12,000 FEET WITH NO
SIGNIFICANT WEATHER AND/OR OBSTRUCTIONS TO VISIBILITY.

OHZ001>008-015>018-024>027-034-035-043-044-301100-
   NORTHWEST OHIO

CITY           SKY/WX    TMP DP  RH WIND       PRES   REMARKS
DEFIANCE       CLEAR     59  55  87 CALM      30.02R
FINDLAY        CLOUDY    62  55  77 CALM      30.01R
TOLEDO EXPRESS CLOUDY    58  56  93 CALM      30.00R
TOLEDO EXEC    PTCLDY    62  54  74 CALM      30.01R
LIMA           MOCLDY    61  58  90 CALM      30.03R
$$

OHZ009>014-019>023-028>033-038-089-301100-
   NORTHEAST OHIO

CITY           SKY/WX    TMP DP  RH WIND       PRES   REMARKS
CLE-HOPKINS    CLOUDY    63  60  90 SW3       30.02S
CLE-LAKEFRONT  PTCLDY    65  60  84 S3        29.99R
CUY CO. ARPT   NOT AVBL
LORAIN-ELYRIA  CLOUDY    61  58  90 CALM      30.01R
ASHTABULA      CLEAR     62  61  96 CALM      30.01R
AKRON-CANTON   PTCLDY    61  59  93 SW3       30.02R FOG
WOOSTER        PTCLDY    57  57 100 W3        30.02S FOG
MANSFIELD      PTCLDY    60  60 100 W3        30.03R
YOUNGSTOWN     PTCLDY    63  62  97 S6        30.01R FOG
$$

OHZ042-051>053-060>062-070>072-077>081-301100-
  SOUTHWEST OHIO

CITY           SKY/WX    TMP DP  RH WIND       PRES   REMARKS
CINC-COVINGTON MOCLDY    66  64  93 CALM      30.04R
CINC-LUNKEN    FOG       62  62 100 CALM      30.04R VSB 1/4
HAMILTON       CLOUDY    64  62  93 CALM      30.04R
DAYTON         CLOUDY    63  61  93 CALM      30.05R
WRIGHT-PAT AFB CLEAR     63  63 100 CALM      30.03R FOG
DAYTON GENERAL CLOUDY    64  61  90 S3        30.03R
WILMINGTON     PTCLDY    64  62  93 W6        30.04R
$$

OHZ036-037-039>041-045>050-054>059-063>069-073>076-082>088-301100-
  CENTRAL AND SOUTHEAST OHIO

CITY           SKY/WX    TMP DP  RH WIND       PRES   REMARKS
COLUMBUS       MOCLDY    63  63 100 CALM      30.01R
OSU AIRPORT    PTCLDY    62  61  96 CALM      30.02R
BOLTON FIELD   NOT AVBL
RICKENBACK AFB NOT AVBL
NEWARK         CLOUDY    61  59  93 CALM      30.01R
MARION         CLOUDY    60  58  92 W3        30.03R FOG
LANCASTER      PTCLDY    62  59  90 CALM      30.02R
ZANESVILLE     CLOUDY    66  61  84 CALM      30.02S
NEW PHILLY     CLOUDY    65  61  87 CALM      30.02S FOG
$$




USA.gov is the U.S. government's official web portal to all federal, state and local government web resources and services.